Regional Weather Roundup
Issued by NWS

Home | Current Version | Previous Version | Graphics & Text | Print | Product List | Glossary On
Versions: 1 2 3 4 5 6 7 8 9 10 11 12 13 14 15 16 17 18 19 20 21 22 23 24 25 26 27 28 29 30 31 32 33 34 35 36 37 38 39 40 41 42 43 44 45 46 47 48 49 50
000
ASUS43 KLSX 231057
RWRMO

WEATHER SUMMARY FOR MISSOURI
NATIONAL WEATHER SERVICE SPRINGFIELD MO
500 AM CST THU FEB 23 2017

NOTE: "FAIR" INDICATES FEW OR NO CLOUDS BELOW 12,000 FEET WITH NO
       SIGNIFICANT WEATHER AND/OR OBSTRUCTIONS TO VISIBILITY.
       CURRENT SKY AND/OR WEATHER CONDITIONS ARE NOT AVAILABLE FOR
       CHILLICOTHE AND FARMINGTON.

MOZ001>031-035>038-043-044-053-054-231200-
...NORTHERN AND WESTERN MISSOURI...

CITY           SKY/WX    TMP DP  RH WIND       PRES   REMARKS
KANSAS CTY INT CLOUDY    50  41  71 NE13      29.69S
LEE`S SUMMIT   CLOUDY    51  41  68 NE16      29.68F
ST JOSEPH      CLOUDY    49  40  71 NE12      29.73R
CHILLICOTHE      N/A     47  41  80 N3        29.73R

$$
MOZ066>068-077>081-088>096-101>105-231200-
...SOUTHWEST MISSOURI...

CITY           SKY/WX    TMP DP  RH WIND       PRES   REMARKS
SPRINGFIELD    FOG       53  53 100 S14       29.68R VSB 1/2
JOPLIN         CLEAR     57  54  89 S10       29.64S

$$
MOZ032>034-039>042-045>050-055>058-069>072-231200-
...CENTRAL MISSOURI...

CITY           SKY/WX    TMP DP  RH WIND       PRES   REMARKS
COLUMBIA       NOT AVBL
JEFFERSON CITY FOG       44  44 100 CALM      29.70S VSB 1/4
ROLLA          FOG       52  52 100 E5        29.69S VSB 1/4
SEDALIA        CLOUDY    51  48  89 NE7       29.69S
WARRENSBURG    CLOUDY    50  39  66 NE12      29.67F

$$
MOZ051-052-059>065-231200-
...EAST CENTRAL MISSOURI...

CITY           SKY/WX    TMP DP  RH WIND       PRES   REMARKS
ST LOUIS INTL  PTCLDY    52  49  89 CALM      29.73S
SPIRIT OF STL  PTCLDY    48  48 100 CALM      29.72S FOG

$$
MOZ072>076-082>087-097>100-106>115-231200-
...SOUTH CENTRAL AND SOUTHEAST MISSOURI...

CITY           SKY/WX    TMP DP  RH WIND       PRES   REMARKS
CAPE GIRARDEAU CLEAR     50  49  96 S6        29.76S FOG
POPLAR BLUFF   FOG       48  48 100 CALM      29.76S VSB 1/4
WEST PLAINS    FOG       52  51  97 S5        29.75S VSB 1/4

$$


USA.gov is the U.S. government's official web portal to all federal, state and local government web resources and services.